Flag for Luxembourg Weather past 2 weeks in Ettelbruck, Luxembourg

Now
53 °F

Drizzle. Low clouds.


Feels Like: 50 °F
Forecast: 40 / 51 °F
Wind: 8 mph from West

Location: Luxembourg / Luxembourg

Current Time: Dec 18, 2014 at 5:10:06 PM

Latest Report: Dec 18, 2014 at 4:00 PM


Visibility: 4 mi

Pressure: 30.00 "Hg

Humidity: 97%

Dew point: 52 °F

Location of EttelbruckLocation

Historic Weather in Ettelbruck — Graph

°F

Ettelbruck temperature yesterday

Maximum temperature yesterday: 46 °F (at 11:00 PM)
Minimum temperature yesterday: 36 °F (at 2:00 AM)
Average temperature yesterday: 40 °F

Past Weeks' High & Low Weather Summary

 TemperatureHumidityPressure
High52 °F (Dec 18, 3:00 PM)100% (Dec 5, 12:00 AM)30.43 "Hg (Dec 5, 12:00 AM)
Low29 °F (Dec 15, 8:00 AM)78% (Dec 7, 1:00 PM)29.61 "Hg (Dec 12, 5:00 PM)
Average38 °F95%30.05 "Hg
* Reported Dec 3 3:00 PM — Dec 18 3:00 PM, Ettelbruck, Weather by CustomWeather, © 2014

Note: Actual official high and low records may vary slightly from our data, if they occured in-between our weather recording intervals... More about our weather records

Advertising

Ettelbruck weather history for previous 24 hours

 ConditionsComfort  
Time TempWeatherWind HumidityBarometerVisibility
3:00 PM
Dec 18
52 °FDrizzle. Low clouds.8 mph98%29.98 "Hg3 mi
2:00 PM52 °FDrizzle. Low clouds.8 mph98%29.97 "Hg2 mi
1:00 PM51 °FDrizzle. Low clouds.8 mph98%29.98 "Hg2 mi
12:00 PM51 °FDrizzle. Low clouds.8 mph98%29.97 "Hg5 mi
11:00 AM51 °FDrizzle. Low clouds.7 mph98%29.97 "Hg2 mi
10:00 AM50 °FDrizzle. Low clouds.6 mph98%29.95 "Hg1 mi
9:00 AM50 °FLow clouds.6 mph98%29.94 "Hg3 mi
8:00 AM49 °FDrizzle. Low clouds.5 mph99%29.93 "Hg2 mi
7:00 AM49 °FDrizzle. Low clouds.5 mph99%29.92 "Hg2 mi
6:00 AM48 °FDrizzle. Low clouds.5 mph99%29.92 "Hg1 mi
5:00 AM48 °FDrizzle. Low clouds.5 mph100%29.92 "Hg1 mi
3:00 AM48 °FCool.6 mph100%29.94 "Hg1 mi
2:00 AM47 °FFog.5 mph99%29.94 "Hg1 mi
1:00 AM47 °FDrizzle. Low clouds.5 mph100%29.93 "Hg1 mi
12:00 AM47 °FDrizzle. Low clouds.3 mph100%29.93 "Hg1 mi
11:00 PM
Dec 17
46 °FDrizzle. Low clouds.3 mph100%29.91 "Hg0 mi
10:00 PM46 °FDrizzle. Dense fog.2 mph100%29.90 "Hg0 mi
9:00 PM46 °FDrizzle. Low clouds.3 mph100%29.88 "Hg0 mi
8:00 PM45 °FFog.5 mph100%29.85 "Hg0 mi
7:00 PM44 °FFog.3 mph99%29.83 "Hg1 mi
6:00 PM44 °FLow clouds.3 mph99%29.82 "Hg2 mi
5:00 PM43 °FLow clouds.5 mph98%29.79 "Hg2 mi
Weather by CustomWeather, © 2014

See weather overviewHow to use our weather pages